Theta_e
318 317 316 317 317 321 326 328 329 328 327 324 325 323 320 323 323 321 319 318 318 320 320 321 322 322 323 323 322 322 323 324 324 327 327 325 321 318 318 318 316 314 313 313 313 313 313 313 314 315 314 314 315 315 316 316 317 319 320 321 323 324 326 327 328 329 329 329 329 329 329 329 330 330 330 330 329 329 329 330 330 331 332 333 333 335 336 336 336 336 336 337 337 336 335 335 334
319 318 317 319 321 326 330 329 328 328 325 322 324 323 322 322 321 320 319 319 320 320 320 320 321 321 322 322 322 321 323 322 321 322 321 319 319 318 316 314 313 313 312 313 313 313 313 313 313 313 313 312 312 312 312 312 312 313 313 313 314 315 316 317 320 322 324 326 327 328 329 329 330 330 330 330 329 329 329 329 329 329 330 330 331 332 333 334 335 335 336 336 335 335 335 335 335
320 319 321 323 325 328 331 329 327 325 323 321 322 324 324 321 319 321 321 320 321 320 320 320 320 320 321 322 321 321 322 321 320 319 318 319 318 317 315 313 312 312 312 313 313 313 313 313 312 312 312 312 312 311 311 311 311 311 311 311 311 311 311 311 312 313 315 316 318 320 322 324 325 326 327 328 328 328 328 327 327 327 327 327 328 329 330 332 332 333 334 334 333 334 334 334 334
320 319 324 328 329 329 330 330 328 324 322 321 320 323 323 321 321 322 321 320 320 320 319 319 319 319 320 321 321 320 322 320 320 319 318 319 318 317 315 313 313 313 312 313 313 312 312 311 311 310 309 309 309 309 309 309 309 309 309 309 309 309 309 310 310 310 310 310 311 312 313 314 315 316 317 318 319 320 321 321 321 321 321 322 323 324 326 328 330 331 332 332 332 332 332 332 332
320 321 326 330 332 330 328 329 329 327 325 323 321 323 322 321 322 321 320 320 319 319 319 319 319 319 319 320 320 320 322 320 319 319 318 318 318 317 315 313 313 313 313 313 312 311 310 309 309 308 308 308 308 308 308 308 308 308 308 308 308 308 308 308 308 309 309 309 309 309 310 310 310 311 311 311 312 312 313 313 313 313 314 315 316 318 320 322 324 326 328 329 329 330 330 330 330
321 323 326 328 329 328 328 327 326 326 326 324 322 322 322 321 322 321 320 319 319 319 318 319 319 319 319 319 320 320 321 321 320 318 318 318 317 316 314 313 313 313 313 312 311 310 309 308 308 307 308 307 307 308 307 307 307 307 307 307 307 307 307 307 307 307 307 308 308 308 308 309 309 309 309 310 310 310 310 311 311 311 311 311 311 312 313 314 316 318 320 322 323 324 325 326 327
323 325 325 325 326 325 326 326 324 323 324 324 323 322 322 321 321 321 319 319 318 318 318 319 319 318 319 319 319 319 320 320 319 317 316 317 317 316 314 313 313 313 312 312 310 309 309 308 307 308 307 307 307 307 307 307 307 306 306 306 306 305 305 305 305 305 305 306 306 306 306 306 307 307 307 307 308 308 308 309 309 310 310 310 310 310 311 311 311 312 313 314 315 316 318 319 320
322 326 325 325 327 325 324 323 322 323 323 323 321 322 322 321 321 321 319 319 318 317 318 318 318 318 319 319 319 319 318 318 318 317 316 316 317 315 314 314 313 313 312 311 310 309 309 308 308 307 307 307 307 307 307 307 306 305 305 304 304 303 303 303 303 303 303 303 303 303 303 304 304 304 304 304 304 304 305 305 305 306 307 308 308 309 309 309 310 310 310 311 311 311 312 312 313
323 326 324 324 326 326 325 324 323 323 324 322 320 321 321 321 321 320 319 319 318 318 317 318 317 317 318 319 318 319 318 317 316 316 316 315 316 315 314 314 313 313 311 310 310 309 308 308 307 307 307 307 307 307 306 306 304 304 303 303 302 302 302 302 302 302 302 302 302 302 302 302 302 302 302 302 303 303 303 303 303 303 303 304 304 305 306 306 307 307 308 308 308 309 309 310 310
323 324 323 324 325 324 324 324 325 324 323 322 320 320 320 321 320 320 319 319 319 318 318 318 317 317 318 318 318 318 318 317 316 315 315 315 315 315 315 314 313 312 311 310 310 309 308 307 307 307 307 306 306 306 306 305 303 303 302 302 302 302 301 302 302 302 302 302 302 302 302 302 302 302 302 302 302 302 302 302 302 302 302 302 303 303 303 303 304 304 304 304 305 305 305 306 307
323 322 321 324 324 323 322 322 325 325 323 321 321 320 320 321 320 320 320 319 319 318 319 318 317 317 317 317 318 318 318 318 316 315 315 315 315 314 315 314 312 311 311 310 310 309 308 307 307 306 306 306 306 306 305 304 303 302 302 301 301 301 301 301 301 301 301 301 302 302 302 302 302 302 302 302 302 302 302 302 302 302 302 302 302 302 302 302 302 303 303 303 303 303 303 303 303
325 325 323 323 322 321 322 323 325 325 324 322 321 319 320 320 320 320 319 319 319 319 319 318 318 318 317 317 318 318 318 317 317 316 315 314 314 314 314 313 312 310 310 310 309 308 308 307 307 306 306 305 305 305 304 303 302 302 301 301 301 301 301 301 301 301 301 301 301 301 301 301 301 301 301 301 301 301 301 301 301 301 301 301 301 301 302 302 302 302 302 302 302 302 303 303 303
323 325 326 325 324 323 324 325 325 326 325 324 321 319 319 320 319 320 320 319 319 319 319 318 318 318 317 318 318 318 318 317 317 316 315 314 314 314 314 313 312 311 310 310 309 308 308 307 307 306 305 305 305 305 304 302 302 301 301 301 301 301 301 301 301 301 301 301 301 301 301 301 301 301 301 301 300 300 300 300 300 300 300 300 300 301 301 301 301 301 301 301 302 302 302 302 302
322 323 324 326 326 324 325 325 325 324 323 323 320 319 319 319 319 320 320 320 319 319 319 319 317 317 317 318 318 318 318 317 317 316 315 314 314 314 313 313 312 311 311 311 310 309 308 308 307 306 306 306 306 305 304 303 302 302 301 301 301 301 301 301 301 301 301 301 301 301 301 301 301 301 300 300 300 300 300 300 300 300 300 300 300 300 300 300 300 300 300 301 301 301 301 301 302
322 322 323 324 324 323 325 325 325 324 323 321 319 318 319 319 319 319 319 319 319 319 319 318 317 317 317 317 318 318 318 317 316 316 314 314 314 314 314 313 312 311 311 311 310 309 309 309 308 307 307 306 306 306 305 304 303 302 302 302 302 301 301 301 301 302 302 302 302 302 302 301 301 301 301 301 301 300 300 300 300 300 300 300 300 300 300 300 300 300 300 300 300 300 300 301 301
320 321 325 324 323 322 324 326 324 324 322 320 318 318 318 318 319 319 318 318 318 318 318 318 317 317 317 317 319 318 318 317 316 315 314 314 314 314 314 313 312 311 311 311 310 310 309 309 308 308 307 307 307 306 306 305 304 303 302 302 302 302 302 302 302 302 303 303 303 303 303 303 303 302 302 302 301 301 301 301 300 300 300 300 300 300 300 300 300 300 300 300 300 300 300 300 300
320 321 325 325 324 323 324 327 324 323 323 319 318 318 318 318 318 318 318 317 317 318 317 317 317 317 316 316 317 317 317 317 316 315 314 314 314 314 314 313 312 311 311 311 311 310 309 308 308 308 307 307 307 306 305 305 304 303 303 302 302 303 303 303 303 304 304 304 304 304 304 305 304 304 304 303 302 302 301 301 300 300 300 300 300 300 300 300 300 300 300 300 300 300 300 300 300
322 324 324 324 324 323 324 324 322 322 322 319 317 318 318 318 317 317 317 317 316 317 317 317 317 316 316 316 315 315 316 315 315 314 314 314 314 314 314 313 313 312 312 311 311 311 309 308 308 307 307 307 306 306 305 305 304 303 302 302 303 303 303 304 304 304 304 305 305 305 305 305 305 305 305 304 304 303 302 301 301 300 300 300 300 300 300 300 300 300 300 300 300 300 300 300 300
322 326 325 324 325 323 322 321 320 320 320 319 318 318 317 318 317 316 316 316 316 316 316 316 316 316 316 315 315 315 315 314 314 314 314 314 314 314 314 313 313 313 312 312 312 311 310 308 308 307 307 307 306 306 305 305 304 303 302 302 302 303 303 304 304 304 304 305 305 305 305 305 305 305 305 305 305 304 303 303 302 301 301 301 300 300 300 300 300 300 300 300 300 300 300 300 300
321 323 324 325 323 322 321 320 320 319 319 318 318 318 317 318 317 316 316 316 316 316 316 316 316 316 316 315 315 314 314 314 314 314 313 313 313 313 313 313 313 313 313 312 312 311 310 308 308 307 307 306 306 306 305 305 304 303 302 302 302 302 303 303 304 304 304 304 304 305 304 305 305 305 305 305 305 305 305 304 304 303 302 302 301 300 300 300 300 300 300 300 300 300 300 300 300
320 321 323 323 321 321 321 320 319 318 318 317 318 318 317 317 317 316 316 316 317 316 316 316 316 317 316 316 315 315 314 314 314 314 313 313 313 313 313 313 313 313 313 312 312 311 311 309 307 307 307 306 305 305 305 305 304 303 302 302 302 302 303 303 303 304 304 304 304 304 304 304 304 304 304 304 304 304 304 304 304 303 303 302 302 301 300 300 300 300 299 299 299 299 299 299 299
321 321 321 320 320 320 319 318 318 318 316 316 316 317 317 317 317 316 316 316 317 317 317 318 317 317 317 316 316 315 315 314 314 314 314 314 313 313 312 312 312 312 312 312 312 312 311 310 308 307 306 305 305 305 305 305 304 304 302 301 302 302 302 303 303 303 303 303 304 304 304 304 304 304 304 304 304 303 303 304 303 303 303 302 302 301 301 300 300 299 299 299 299 299 299 299 299
320 320 320 320 319 319 319 318 317 317 316 315 316 316 317 317 317 317 316 316 316 317 318 318 317 317 317 317 317 316 316 315 315 315 314 314 313 313 313 312 312 312 312 312 312 312 311 310 309 308 306 305 305 305 305 304 304 304 302 301 301 302 302 302 303 303 303 303 303 303 303 303 303 303 303 303 303 303 303 303 303 302 302 302 302 302 301 301 300 299 299 299 298 298 298 298 298
318 319 318 318 319 318 319 318 316 316 315 315 315 316 315 316 316 316 316 316 316 316 317 317 317 317 317 317 317 316 316 316 316 315 315 314 314 313 313 312 312 312 312 312 312 312 312 311 309 308 306 305 305 305 305 304 304 303 302 301 301 301 302 302 302 302 302 303 303 303 303 303 303 303 303 303 302 302 302 302 302 302 301 301 301 301 301 300 300 299 299 298 298 298 298 298 298
318 318 318 318 319 319 318 317 316 315 315 315 315 314 314 315 316 316 316 316 316 316 316 316 317 317 317 317 316 316 316 316 315 315 315 314 313 313 312 311 311 311 311 311 311 312 312 311 310 308 306 306 305 304 304 304 304 303 302 301 301 301 301 302 302 302 302 302 302 302 302 302 302 302 302 302 302 302 302 302 301 301 301 301 301 300 300 300 299 298 298 297 297 297 297 297 297
318 317 318 318 318 318 318 317 316 316 314 314 314 314 314 315 315 315 316 316 316 316 317 316 316 316 316 316 316 315 315 315 315 315 314 314 313 312 312 311 310 310 311 311 311 311 311 311 311 309 307 306 305 304 304 304 304 303 302 301 301 301 301 301 301 301 302 302 302 302 302 302 302 302 302 302 302 302 302 301 301 301 300 300 300 300 299 299 298 297 297 297 297 297 296 296 296
317 317 316 316 316 317 317 317 317 316 315 315 314 314 314 315 315 315 316 316 316 316 316 316 316 316 316 315 315 315 315 315 314 314 314 313 312 312 312 311 311 310 310 310 310 311 311 311 311 310 308 306 305 304 304 304 304 303 302 301 300 300 301 301 301 301 301 301 301 301 301 301 301 301 301 301 301 301 301 301 301 301 300 300 300 299 298 298 297 297 296 296 296 296 296 295 295
317 316 315 315 316 316 316 316 317 316 315 315 314 314 314 315 315 315 316 316 316 317 316 316 316 316 316 315 315 314 314 314 314 313 313 313 313 313 312 312 311 310 310 310 310 310 310 310 310 310 308 307 305 305 304 304 304 303 302 301 300 300 300 300 301 301 301 301 301 301 301 301 301 301 301 301 301 301 301 301 301 300 300 299 299 298 298 297 297 296 296 296 295 295 295 295 295
316 315 315 316 316 316 317 316 316 316 316 315 314 314 315 315 315 315 316 316 316 316 316 316 316 316 316 315 315 314 314 314 313 313 314 314 314 313 312 312 312 311 310 310 309 309 310 310 310 309 309 307 306 305 304 304 304 303 302 301 301 300 300 300 300 300 301 301 301 301 301 301 301 301 301 301 301 301 301 301 300 300 300 299 298 298 297 296 296 295 295 295 295 295 295 295 295
315 315 315 316 316 317 318 318 317 315 315 315 314 316 316 316 315 316 317 316 315 316 315 316 316 316 316 315 314 314 314 313 314 314 315 314 314 313 313 312 312 311 310 310 309 309 309 309 309 309 309 308 306 305 304 303 303 303 302 301 301 300 300 300 300 300 300 300 300 301 301 301 301 300 300 300 300 300 300 300 300 300 299 298 298 297 296 296 295 295 295 295 294 294 294 294 294
315 316 317 318 318 318 319 318 318 316 315 314 315 315 316 316 316 316 317 317 316 315 315 315 316 315 315 315 314 314 314 314 315 315 314 314 314 314 313 312 311 311 310 310 309 309 309 309 309 308 309 308 307 305 304 303 303 303 302 301 301 300 300 300 300 300 300 300 300 300 300 300 300 300 300 300 300 300 300 300 300 299 299 298 297 296 295 295 294 294 294 294 294 294 294 293 293
316 317 319 320 319 318 319 318 317 316 314 313 315 316 315 315 317 317 318 317 316 315 315 315 315 315 315 315 315 314 314 315 314 314 314 314 314 314 313 312 312 311 310 310 309 309 309 309 308 308 308 308 307 305 304 303 303 302 301 301 300 300 300 299 300 300 300 300 300 300 300 300 300 300 300 300 300 300 300 300 299 299 298 297 296 295 294 294 294 293 293 293 294 293 293 293 293
319 318 319 321 320 319 320 317 315 315 314 313 314 316 316 316 317 317 318 317 317 315 315 315 315 315 315 315 315 314 314 314 314 314 314 314 314 314 314 313 312 312 311 310 309 309 309 309 308 308 308 308 307 306 304 303 303 302 301 301 300 300 299 299 299 299 299 300 300 300 300 300 300 300 300 300 300 300 299 299 299 299 298 297 296 295 294 293 293 293 293 293 293 293 293 293 293
320 321 319 320 321 319 320 318 315 315 315 314 314 314 315 316 316 316 317 317 316 315 315 316 316 315 316 315 315 315 314 314 313 313 313 313 314 314 314 313 312 312 311 310 309 309 309 309 308 308 308 307 307 306 304 303 302 302 301 301 300 300 299 299 299 299 299 299 299 300 300 300 299 299 299 299 299 299 299 299 299 298 297 296 295 295 294 293 293 293 293 293 292 292 292 293 293
320 321 319 318 319 319 320 320 316 315 315 315 314 314 314 315 315 315 316 317 316 315 315 316 316 316 316 316 315 315 315 314 314 314 313 313 313 313 313 313 312 311 310 309 309 308 308 308 307 307 307 307 306 305 304 303 302 301 301 301 300 299 299 299 299 299 299 299 299 299 299 299 299 299 299 299 299 299 299 299 299 298 297 296 295 294 293 293 293 292 293 292 292 292 292 292 293
318 319 318 318 318 318 319 319 317 315 315 315 314 314 314 315 315 315 316 317 316 316 316 316 316 316 316 315 316 315 315 315 315 314 313 313 313 312 312 312 311 310 310 309 308 307 307 308 307 307 307 307 306 305 304 303 302 301 301 300 300 299 299 299 299 299 299 299 299 299 299 299 299 299 299 299 299 299 299 298 298 297 297 296 295 294 293 293 292 292 292 292 293 293 293 292 292
318 318 319 319 319 318 318 318 317 315 316 316 315 315 315 316 316 316 316 317 316 316 316 315 315 316 316 315 316 316 315 315 315 314 314 313 313 312 312 311 311 310 309 308 308 307 307 308 307 307 307 306 306 306 305 304 303 302 301 301 300 300 299 299 299 299 299 299 299 299 299 298 299 299 299 299 299 298 298 298 297 297 296 295 295 294 293 292 292 292 292 292 292 292 292 292 292
318 319 320 319 319 318 317 318 317 315 316 317 317 317 316 316 317 316 316 317 317 316 316 316 316 316 316 316 316 316 316 315 315 315 314 313 312 312 311 311 310 309 308 308 307 307 308 308 308 307 307 306 307 306 306 305 305 304 302 302 301 300 299 299 298 298 298 299 299 298 298 298 298 298 298 298 298 298 298 298 297 297 296 295 295 294 293 292 292 292 292 292 292 291 291 291 291
320 321 321 319 318 318 318 319 316 313 316 317 317 317 316 316 317 316 316 317 317 317 316 316 316 316 316 316 316 316 316 316 315 315 314 314 313 312 311 310 310 309 309 308 308 307 307 307 307 307 306 306 307 307 306 306 305 304 302 301 301 299 299 298 298 298 298 298 298 298 298 298 298 298 298 298 298 298 298 297 297 297 296 295 294 294 293 292 292 291 291 291 291 291 291 291 290
320 320 319 318 318 319 318 318 315 313 315 317 317 316 316 316 316 316 316 316 316 317 317 317 317 316 316 316 316 316 316 316 316 315 314 314 313 311 310 310 309 309 308 307 307 307 307 307 307 307 307 306 306 306 306 306 305 303 301 300 299 298 298 297 297 298 298 298 298 298 297 297 298 298 298 297 297 297 297 297 297 296 296 295 294 293 293 292 291 291 291 291 290 290 290 290 290
319 321 319 317 318 319 319 320 318 316 315 315 316 316 316 317 317 317 316 316 316 316 316 316 317 317 316 316 316 316 317 317 316 315 315 314 313 312 311 310 309 308 308 307 308 308 308 308 307 307 307 307 306 306 306 305 304 302 300 299 297 297 297 297 297 297 298 298 298 297 297 297 297 297 297 297 297 297 297 297 296 296 295 294 293 293 292 291 291 291 290 290 290 290 290 290 290
318 321 321 319 318 319 320 322 323 323 321 317 316 317 317 319 319 318 318 319 318 316 316 316 316 316 316 316 316 316 317 317 317 316 315 314 313 312 311 310 309 308 308 308 308 308 308 308 308 307 307 306 306 306 305 305 304 302 301 300 299 298 297 297 298 298 298 298 298 297 296 297 297 297 297 297 297 297 297 297 296 296 295 293 293 292 291 291 290 290 290 290 290 290 289 289 290
316 323 327 322 320 323 324 324 324 327 325 319 319 319 318 319 318 318 320 321 321 318 317 316 315 316 316 315 315 315 316 316 316 316 315 314 313 312 311 310 309 309 309 308 308 308 308 307 307 307 307 306 306 306 305 304 303 302 301 301 300 300 299 299 299 298 298 297 297 296 296 296 297 296 296 296 297 297 296 296 296 295 294 293 292 292 291 290 290 290 290 290 290 290 289 289 289
319 325 327 323 321 324 324 324 324 325 322 319 321 320 319 318 317 319 320 320 321 319 318 317 314 314 315 315 315 315 316 317 316 316 315 314 313 312 312 311 310 310 310 309 308 308 308 307 307 307 306 306 306 306 305 304 304 303 301 300 299 299 299 298 298 297 297 297 296 296 296 296 296 296 296 296 296 296 296 296 295 295 294 293 292 291 291 290 290 290 290 290 290 289 289 289 288
321 322 322 321 322 321 320 321 323 322 318 319 322 320 320 319 316 318 320 318 319 318 318 318 315 313 314 315 316 315 315 317 316 316 315 314 314 313 312 311 311 310 309 309 309 308 308 307 307 307 307 306 306 306 305 304 303 302 301 300 299 299 298 297 297 297 296 296 296 296 296 296 296 296 296 296 296 296 296 295 295 294 293 292 292 291 290 290 290 290 290 290 289 289 289 288 288
320 320 320 320 320 318 318 319 319 319 318 319 323 320 319 318 315 317 319 317 317 317 317 317 314 313 314 315 316 315 316 317 316 316 315 314 313 313 312 311 310 310 310 309 309 308 308 308 307 307 307 307 307 306 305 304 303 302 301 300 299 298 298 296 296 296 296 296 296 296 296 295 295 296 296 295 296 295 295 295 294 294 293 292 291 291 290 290 290 290 290 289 289 289 288 287 287
317 318 318 319 320 317 317 317 316 319 318 318 321 320 317 318 318 318 319 318 317 317 316 315 315 313 314 316 315 316 316 317 317 315 314 313 313 312 311 311 311 310 310 309 309 308 308 308 308 308 308 307 307 307 306 305 304 302 302 301 299 298 298 297 296 296 296 296 295 295 295 295 295 295 295 295 295 295 295 295 294 293 292 291 291 290 290 290 290 290 289 289 289 288 288 287 287
317 318 317 319 321 318 317 316 316 319 319 319 322 320 317 318 319 318 318 318 317 317 316 316 317 315 314 316 316 316 317 317 317 315 313 312 312 311 311 311 311 311 310 310 310 310 309 309 309 308 308 307 307 307 306 306 304 303 302 301 299 298 297 297 297 296 296 296 296 295 295 295 295 295 295 295 295 295 295 294 293 292 292 291 290 290 290 290 290 289 289 289 288 287 287 286 286
318 319 317 319 321 320 320 320 321 321 319 321 323 320 318 317 317 317 318 317 317 317 316 315 316 316 315 316 316 316 318 317 316 314 313 313 312 313 312 312 312 312 313 312 312 312 311 310 310 309 309 308 308 308 307 306 306 304 303 301 299 298 297 297 296 296 296 295 295 295 295 295 295 295 295 295 295 295 295 294 293 292 291 291 290 290 290 290 289 289 289 288 287 287 286 286 286
316 318 319 322 321 320 321 322 324 323 320 320 320 321 321 317 316 318 317 316 317 315 315 315 315 315 316 316 317 317 318 317 315 314 313 312 313 314 314 314 314 314 314 314 313 313 312 311 311 310 309 308 308 308 307 307 307 305 303 301 299 298 297 297 296 295 295 295 295 295 294 294 294 295 295 295 294 294 294 294 293 292 291 290 290 290 290 289 289 289 288 288 287 286 286 286 286
313 316 318 321 322 320 320 321 322 322 323 320 317 320 321 317 318 320 317 316 315 314 316 316 314 316 315 315 317 318 317 315 314 313 313 313 313 314 314 314 314 314 313 313 313 313 312 312 312 311 310 309 309 308 307 307 307 306 303 301 299 298 297 297 296 295 295 294 294 294 294 294 294 294 294 294 294 294 294 293 292 291 291 290 290 289 289 289 289 288 288 287 287 286 286 285 285
314 316 317 319 321 319 318 321 320 319 321 319 316 320 319 315 317 319 317 317 315 313 315 314 314 315 314 316 317 318 317 315 314 313 312 313 313 314 315 314 314 313 312 312 312 312 312 312 312 311 310 309 309 308 308 307 307 306 304 302 300 298 297 296 295 295 294 294 294 294 294 294 294 294 294 294 294 293 293 292 292 291 290 290 289 289 289 289 289 288 287 287 286 286 285 285 285
317 317 318 318 320 320 319 321 320 318 319 318 316 319 317 314 316 317 316 317 316 315 315 314 314 315 314 315 317 317 316 315 314 313 313 313 313 314 314 314 314 313 312 312 312 312 312 311 311 310 309 309 309 309 308 307 306 306 305 302 300 299 297 297 296 295 294 294 294 294 293 293 293 293 293 293 293 293 292 291 291 290 290 289 289 289 289 289 288 288 287 287 286 286 285 285 285
318 319 319 317 319 321 319 320 320 320 319 318 316 317 316 314 317 318 316 315 315 315 316 315 314 313 313 314 316 316 316 315 314 313 313 312 312 313 313 314 313 313 313 313 312 312 311 311 311 310 309 309 310 310 308 306 306 306 305 303 301 299 298 296 295 294 294 294 293 293 293 293 293 293 293 293 293 292 292 291 290 290 289 289 289 289 289 288 288 287 287 286 286 285 285 285 285
315 316 316 316 319 321 319 318 320 320 317 316 316 316 315 314 315 316 316 315 315 315 315 315 315 314 313 313 315 315 315 315 314 313 313 313 313 313 313 313 313 313 313 312 312 312 311 311 310 310 309 309 309 309 308 306 305 305 305 304 301 299 298 296 295 294 294 293 293 293 293 293 293 293 293 293 293 292 291 291 290 290 289 289 289 289 289 288 288 287 287 286 285 285 285 285 285
310 311 314 314 315 319 320 318 319 318 316 315 316 316 315 315 316 317 318 316 314 314 314 315 315 313 313 314 315 315 315 315 314 314 314 313 313 313 312 313 313 313 313 312 312 312 311 311 310 310 309 308 308 308 307 306 305 304 304 303 301 299 298 296 295 294 294 293 293 293 293 292 292 292 293 292 292 292 291 290 290 289 289 289 289 289 288 288 288 287 286 285 285 285 285 285 285
312 312 314 313 312 315 318 317 317 317 316 315 316 315 315 316 317 319 318 315 314 315 315 316 315 313 313 314 314 315 315 315 314 314 314 313 313 312 312 312 312 313 313 312 312 312 311 311 310 310 309 308 308 308 307 307 305 304 303 303 302 300 298 296 295 294 293 293 293 293 292 292 292 292 292 292 292 291 290 290 290 289 289 289 289 288 288 288 287 286 286 285 285 285 285 285 285
314 313 314 313 313 314 316 316 316 316 316 315 316 315 315 316 319 320 318 316 316 315 315 317 315 312 313 315 314 314 315 314 314 314 314 314 313 312 312 312 312 312 312 312 312 311 311 311 310 310 309 308 308 308 307 307 305 304 303 303 302 300 298 296 295 294 293 293 292 292 292 292 292 292 292 291 291 291 290 290 290 289 289 289 288 288 288 287 286 286 285 285 284 284 284 285 284
Wind_Speed
4 3 2 2 2 1 0 1 2 3 2 4 6 3 2 4 4 3 3 4 0 2 5 3 4 5 3 2 4 5 7 4 1 2 2 1 10 21 18 16 15 13 12 10 11 10 7 6 6 5 3 3 3 3 4 5 5 5 6 7 7 8 8 9 10 10 11 11 10 10 10 9 9 10 10 11 11 10 10 9 8 8 9 9 8 8 8 8 8 8 8 9 10 11 12 13 14
3 4 4 1 3 2 2 2 2 3 3 4 5 2 4 4 3 3 4 4 3 7 7 4 3 3 2 2 4 2 7 7 3 4 3 7 16 19 15 15 14 12 11 10 11 7 6 5 5 4 2 2 2 3 3 4 5 5 6 7 7 8 8 9 9 10 11 12 12 12 12 12 12 12 12 13 13 12 11 10 10 10 10 10 10 10 9 9 8 9 9 9 11 12 13 13 14
3 4 7 2 1 1 4 1 2 3 3 4 1 2 4 4 4 3 4 8 10 9 7 5 3 1 3 3 2 2 4 6 3 4 7 12 17 17 15 14 13 12 11 11 9 6 6 5 5 4 3 3 2 2 3 3 3 4 5 5 6 6 7 8 8 9 10 11 12 12 13 13 14 14 14 14 15 15 15 14 13 13 12 12 12 12 12 12 12 12 12 13 14 14 14 14 15
3 4 8 1 3 2 3 2 3 3 4 4 1 1 3 4 6 7 10 12 10 8 5 4 2 1 3 3 2 1 5 6 2 2 8 14 15 15 15 14 13 12 11 10 8 6 6 5 4 4 3 2 2 2 1 0 1 2 2 3 4 4 5 5 6 7 7 8 9 10 11 11 12 13 14 14 15 16 16 16 16 15 14 13 14 14 14 14 14 14 14 15 15 15 15 16 17
4 3 7 5 2 2 2 2 3 3 5 4 1 1 2 4 8 8 9 10 8 7 5 4 2 1 4 5 2 1 5 4 2 3 6 10 13 17 16 14 14 12 11 10 9 7 5 4 3 3 3 4 3 4 4 4 4 4 4 4 4 4 4 5 5 5 6 6 6 7 7 8 9 10 11 12 13 14 14 15 16 16 15 14 14 15 15 16 16 16 16 17 17 17 17 17 18
5 3 4 3 3 3 2 2 4 5 5 4 2 3 3 4 10 11 10 9 7 6 6 5 2 1 2 5 4 3 5 4 3 3 5 8 12 17 17 15 14 13 12 11 8 6 5 4 4 4 4 4 4 5 4 4 5 4 5 4 5 5 5 5 5 5 6 6 6 6 7 7 7 8 8 9 10 11 11 12 13 14 14 14 14 15 15 16 17 17 18 19 19 19 19 19 19
5 3 2 2 3 2 2 4 5 5 3 3 3 3 3 7 13 13 10 7 4 4 7 6 3 1 1 4 5 7 8 8 7 4 3 7 13 16 17 16 15 14 13 9 6 4 4 3 4 4 4 4 4 4 4 5 5 5 5 5 5 5 5 5 5 5 6 6 6 7 7 7 8 8 8 9 9 10 10 10 10 10 11 12 13 14 14 15 16 17 18 19 20 20 21 21 21
5 2 2 1 2 2 3 5 5 6 2 1 2 3 3 11 15 11 7 5 4 5 9 8 6 3 3 4 3 7 10 13 14 11 7 6 12 17 17 16 15 14 11 8 5 3 3 3 3 3 3 3 3 3 4 4 5 5 5 5 5 5 5 5 5 5 6 6 6 6 7 7 7 7 8 8 9 9 10 10 10 10 10 10 11 12 13 14 15 16 17 18 19 19 20 21 22
4 1 1 1 3 2 4 5 6 8 4 3 4 3 3 10 12 8 6 5 5 7 11 12 10 5 3 5 4 7 10 11 14 15 12 9 12 17 17 16 14 13 10 8 5 3 4 4 4 3 3 3 2 2 3 3 4 4 4 5 5 5 5 5 5 5 5 5 5 5 5 5 6 6 6 7 7 8 8 9 9 10 10 10 11 11 12 14 15 16 17 18 18 19 19 20 21
2 4 2 0 3 3 5 5 5 4 2 3 5 5 4 8 9 8 8 6 6 7 9 13 11 8 4 4 5 8 10 9 11 13 13 13 14 17 18 17 14 12 11 8 6 5 6 6 5 4 4 3 2 1 2 3 3 3 4 5 5 5 5 5 4 4 4 4 4 4 4 4 5 5 5 5 6 6 6 7 7 8 8 9 9 10 11 12 13 14 15 17 18 19 20 21 21
4 6 3 2 3 4 5 4 4 1 4 3 3 6 6 7 8 7 8 7 9 8 9 11 8 12 9 5 5 9 10 9 10 11 12 15 16 18 18 17 15 14 12 9 8 8 8 7 6 5 5 3 2 1 2 2 3 3 4 4 4 4 4 4 4 4 4 4 4 4 4 4 5 5 5 5 5 5 6 6 7 7 8 8 8 9 10 10 11 12 13 14 15 16 18 19 20
3 4 3 2 3 4 5 4 5 3 3 3 4 8 7 8 7 6 8 7 10 10 11 13 5 8 8 5 7 10 12 10 12 12 12 14 17 19 19 18 17 15 12 11 10 10 10 8 7 6 5 4 2 1 1 1 2 3 3 3 3 3 3 3 4 4 4 4 4 5 5 5 5 5 6 6 6 7 7 7 8 8 9 9 10 10 11 11 12 12 13 13 13 14 15 16 16
4 3 1 3 4 4 5 5 5 5 2 2 4 10 9 8 8 7 8 7 10 9 10 15 7 5 6 3 6 11 13 13 14 13 12 14 17 19 19 19 18 16 14 13 12 13 12 9 8 6 5 3 2 0 1 1 2 3 3 3 3 3 3 3 4 4 4 5 5 6 6 7 7 7 8 8 9 10 10 11 11 11 12 12 13 13 14 14 14 14 14 15 15 15 15 15 15
5 6 3 2 4 4 5 5 4 5 3 3 7 11 9 7 8 9 8 6 8 7 7 13 10 4 6 4 5 12 14 14 16 13 12 15 18 19 20 20 19 18 16 15 15 15 13 10 8 6 5 3 2 1 2 2 3 4 4 4 3 3 3 3 4 4 5 6 6 7 8 9 9 10 11 11 12 12 13 13 14 14 15 15 16 16 16 17 17 17 17 17 17 17 17 17 17
7 6 3 3 4 5 4 4 4 3 2 3 6 8 7 6 7 8 8 6 3 4 6 11 13 5 4 6 6 13 15 13 13 12 14 16 18 20 21 21 20 19 18 18 17 15 14 11 9 7 6 5 3 2 2 3 3 4 5 4 3 3 3 3 4 5 5 6 7 8 9 9 10 11 11 12 13 13 14 14 14 15 16 16 17 17 17 18 18 19 19 19 19 19 19 19 18
7 4 2 3 4 5 3 3 2 2 1 3 5 6 4 6 8 8 8 7 2 5 9 11 15 10 4 5 7 11 12 11 9 10 14 16 18 20 20 21 21 21 20 20 18 17 16 13 11 10 8 7 6 5 4 4 3 4 4 4 3 3 2 3 3 4 5 6 7 8 9 9 10 11 12 12 13 13 14 14 14 15 15 15 16 16 17 17 18 18 18 19 19 19 19 18 18
4 2 2 3 5 6 2 2 1 1 1 4 6 7 4 5 8 10 10 10 7 7 10 10 14 15 11 10 11 12 12 12 10 11 14 16 18 19 21 22 23 23 23 23 21 20 18 16 15 13 12 10 9 8 7 6 5 5 5 4 4 3 2 2 2 3 4 5 6 7 8 8 9 10 11 12 12 13 13 13 14 14 14 14 14 14 15 15 15 16 16 17 17 17 18 18 18
4 2 3 4 5 5 1 2 3 2 1 2 5 7 4 3 6 10 9 11 14 12 13 13 13 15 17 18 17 17 17 17 16 15 15 16 19 20 21 23 24 25 25 25 24 23 21 19 18 16 14 12 11 10 9 8 8 7 7 6 6 5 4 3 2 2 3 3 4 5 5 6 6 7 8 9 10 11 12 12 12 12 12 13 13 13 13 14 14 15 15 16 16 17 17 18 18
6 3 3 5 5 3 1 4 4 3 4 3 3 6 6 5 5 8 5 7 14 13 15 16 15 16 19 22 22 23 23 22 22 20 19 19 20 21 21 24 25 26 26 26 26 25 23 22 21 18 16 14 13 12 11 11 10 9 9 9 8 7 6 5 4 4 3 3 3 4 4 4 4 4 5 6 7 8 8 9 10 11 11 12 12 13 13 13 14 14 15 16 16 17 17 18 19
8 5 3 6 3 5 6 5 3 3 5 5 6 5 7 9 7 6 5 7 10 12 14 15 19 23 24 25 25 26 26 26 26 24 23 22 21 22 23 24 25 26 25 26 27 27 26 24 22 20 18 16 15 14 13 13 12 12 11 11 10 9 8 7 7 6 5 5 4 4 4 4 4 4 4 4 5 6 7 8 9 10 11 11 12 13 13 13 14 14 14 15 16 16 17 18 18
5 6 4 6 2 4 6 4 2 3 2 5 9 7 6 10 9 8 7 5 7 13 19 20 23 27 26 27 28 28 29 28 29 28 27 25 24 24 24 25 25 25 26 27 28 28 27 26 24 23 20 18 17 16 15 15 15 14 14 13 12 11 10 10 9 8 7 7 6 5 5 5 5 5 5 5 5 5 6 8 9 10 11 12 12 13 13 13 13 14 14 14 15 16 16 17 18
3 7 11 14 10 4 4 1 3 4 4 6 8 7 8 9 11 14 12 7 11 14 16 20 25 26 24 26 29 29 29 29 29 28 28 27 27 26 26 26 26 27 28 29 29 29 28 27 26 25 22 21 20 18 18 17 17 16 16 15 14 13 12 11 10 10 9 8 8 7 6 6 6 6 6 6 5 6 7 8 9 10 11 13 13 14 15 15 15 14 14 14 15 15 16 17 17
5 8 14 19 16 8 5 4 6 6 6 7 6 7 10 9 10 15 17 20 25 19 11 13 17 20 21 24 27 29 29 28 28 27 26 27 27 27 27 28 28 29 29 30 29 29 30 29 28 26 24 23 22 21 20 19 19 18 17 17 16 15 14 13 12 11 10 10 9 8 8 7 7 7 7 7 7 7 7 8 9 10 12 13 14 15 16 16 16 16 16 16 16 16 16 17 17
6 7 10 17 16 11 10 8 8 9 8 10 8 8 9 10 9 12 21 30 33 28 20 18 17 16 18 20 24 27 28 27 27 26 25 25 25 25 26 28 29 30 30 31 30 30 30 30 30 28 27 26 24 23 22 20 21 19 18 18 17 16 15 14 13 13 12 11 10 9 8 8 8 8 8 8 8 8 8 9 10 11 12 13 14 15 16 16 16 16 16 16 17 17 17 18 18
8 8 11 14 12 11 12 11 11 11 11 12 10 10 12 16 12 14 28 33 29 27 25 24 24 22 21 22 24 25 27 28 28 27 26 27 26 26 27 29 30 31 32 32 32 31 30 31 31 30 29 28 26 25 23 23 23 20 20 20 19 18 17 16 15 14 13 12 11 10 9 9 8 9 9 9 9 9 9 10 10 11 13 14 15 16 17 17 17 17 17 17 17 17 18 19 19
5 8 11 11 10 11 12 13 13 12 13 11 9 11 16 19 13 17 35 37 30 28 25 25 25 25 25 25 28 28 30 31 31 31 30 29 28 29 30 31 32 34 34 33 33 33 31 31 32 32 31 29 28 27 26 26 24 22 22 21 20 19 18 17 16 15 14 13 12 11 10 10 9 9 9 9 9 10 10 10 11 12 13 14 15 16 17 18 18 18 18 19 19 19 20 21 22
5 8 11 13 16 18 15 15 15 14 14 13 11 9 14 16 7 13 31 25 22 27 27 28 26 26 28 26 28 30 31 33 34 33 32 31 31 32 33 32 34 35 35 35 35 34 33 33 32 33 33 31 30 29 29 28 25 23 23 22 21 21 19 18 18 17 15 14 13 12 11 11 9 9 9 9 10 10 10 11 11 12 13 14 15 16 17 18 18 19 19 20 21 21 22 23 24
9 8 10 14 18 21 20 17 18 15 10 15 15 8 12 11 6 19 33 19 11 18 23 26 28 29 29 27 27 29 31 32 32 33 34 35 35 35 35 34 35 36 37 37 36 35 35 34 33 34 34 33 32 31 31 29 27 25 24 23 23 22 20 20 19 18 17 15 14 13 12 12 10 9 9 9 10 10 11 11 12 12 13 14 15 16 17 18 18 19 20 20 22 22 23 23 24
8 5 6 12 13 15 19 19 20 15 7 12 12 5 11 10 13 32 42 28 17 16 18 21 25 29 29 29 28 29 31 30 31 34 35 35 35 36 36 35 34 36 37 37 36 36 36 35 34 35 36 35 34 34 32 31 29 27 26 25 24 23 22 21 20 19 18 16 16 14 13 13 11 10 10 10 10 10 11 11 12 12 13 14 15 16 17 18 18 19 20 21 21 22 23 24 25
6 5 5 8 9 9 16 19 20 14 7 13 11 2 9 9 22 35 34 27 23 20 21 21 22 26 28 30 30 30 31 31 33 35 35 34 33 36 36 34 35 35 36 37 38 37 36 36 35 36 37 37 36 35 34 32 31 28 27 26 25 24 23 23 22 21 20 18 17 16 14 14 12 11 10 10 10 11 11 12 12 12 13 15 16 17 17 18 19 19 20 21 21 22 24 25 27
4 5 5 5 4 6 10 10 15 11 8 17 12 4 10 8 18 29 26 23 23 23 25 24 24 26 28 30 31 32 33 34 36 36 35 34 33 35 35 34 35 36 37 38 38 38 37 37 36 37 37 37 38 37 35 34 32 30 28 27 26 26 25 24 23 22 21 20 18 17 16 15 14 12 11 10 11 11 12 12 13 13 14 15 16 17 18 18 18 19 20 21 22 23 25 26 28
3 3 5 4 4 7 7 3 15 12 6 16 11 3 10 12 14 17 21 24 23 23 24 23 25 27 28 31 32 33 35 36 36 36 36 35 34 35 35 35 35 36 37 38 39 38 38 38 37 38 38 38 39 38 36 35 33 31 30 28 27 27 27 26 25 24 23 21 20 18 17 16 15 13 12 11 11 12 12 13 13 14 14 15 17 18 18 18 18 19 20 21 23 24 26 27 29
4 5 5 6 6 8 5 2 12 12 6 11 12 5 6 9 6 4 11 21 23 21 20 21 24 26 28 30 32 34 35 36 37 38 38 37 37 36 35 35 36 36 37 38 39 39 38 38 38 38 38 38 39 39 38 36 35 32 31 30 29 29 29 28 26 25 24 23 21 19 18 17 16 14 13 12 12 12 13 13 14 14 14 16 17 18 18 19 19 19 20 21 23 25 27 28 30
4 5 6 7 8 8 5 1 6 10 6 8 12 9 11 9 7 6 8 17 21 20 20 21 23 25 28 30 31 33 35 37 39 39 38 38 38 37 36 36 36 36 37 38 39 39 38 38 39 38 38 38 39 40 38 37 35 33 32 32 31 31 30 29 28 26 25 24 23 21 20 19 17 15 14 13 13 13 13 14 14 14 14 16 17 18 18 19 19 20 21 21 22 25 27 30 32
5 6 5 6 7 8 8 3 4 10 7 7 9 10 16 14 13 18 19 17 19 21 22 24 27 29 32 32 32 33 35 38 40 39 37 37 37 37 37 37 37 37 37 38 38 39 39 38 39 38 38 39 39 40 39 37 36 35 34 34 33 32 32 31 29 28 26 25 24 22 21 20 18 16 15 14 13 14 14 14 14 14 15 16 17 18 19 19 19 21 21 21 22 24 27 31 33
9 10 7 8 7 7 11 8 5 11 8 8 11 11 14 16 14 17 25 25 22 24 24 25 29 31 33 33 33 34 35 39 40 37 35 36 37 36 36 37 38 38 38 38 39 39 39 39 39 39 39 39 39 40 40 39 38 37 37 36 35 35 34 33 31 29 28 27 26 24 22 21 19 17 16 15 14 14 14 14 15 15 16 16 17 18 19 20 20 21 22 23 24 25 27 30 33
13 12 9 9 8 8 13 10 4 9 6 8 13 12 13 17 15 13 22 24 20 20 20 23 27 30 32 32 33 36 36 38 36 34 33 33 34 35 36 37 38 38 38 39 40 40 39 39 39 40 40 40 40 41 41 41 40 40 40 39 38 37 35 35 33 31 30 29 27 25 24 23 21 19 17 16 15 14 14 14 15 16 16 17 18 19 20 20 21 22 23 23 25 26 28 30 33
12 10 8 8 7 10 14 8 3 7 5 7 10 11 13 16 15 14 18 18 15 18 18 22 28 31 33 31 33 37 34 32 31 31 31 29 30 33 35 37 38 38 39 40 40 39 39 39 39 40 40 40 41 41 41 41 41 41 40 39 38 37 37 36 34 33 31 30 29 27 25 24 22 20 19 17 16 15 14 15 16 16 17 17 18 19 20 21 22 23 24 24 25 26 28 29 32
9 6 5 7 7 10 11 4 2 3 3 5 8 10 11 14 16 15 16 15 18 25 26 27 32 32 32 33 35 34 28 27 28 29 29 28 29 31 34 36 38 38 39 40 40 38 38 39 39 40 40 40 40 40 41 41 41 41 40 39 38 37 37 37 35 33 32 31 30 28 26 25 23 21 19 18 16 15 15 15 16 17 17 18 18 19 20 21 22 23 24 25 25 26 27 29 31
8 6 5 8 9 9 7 2 3 4 4 6 7 8 9 12 16 15 20 25 25 30 33 34 37 35 36 39 37 30 23 24 27 28 28 27 28 30 33 35 36 38 39 39 40 39 39 39 39 39 39 39 40 40 41 41 41 40 40 39 39 38 37 37 36 35 34 33 31 29 27 26 24 22 20 18 16 15 15 16 16 17 18 18 19 20 21 21 22 23 24 25 25 27 28 29 30
8 7 7 10 11 11 9 5 3 4 6 5 4 8 8 10 15 14 15 20 21 24 27 29 35 38 40 40 37 31 25 25 27 28 28 28 28 30 32 33 35 37 39 39 40 39 39 39 39 38 38 38 39 39 40 41 41 42 42 42 41 40 39 39 38 37 36 34 32 30 28 27 25 23 21 19 17 16 16 16 17 18 18 19 19 20 21 21 22 23 24 24 25 27 29 30 31
8 7 11 15 14 12 11 8 4 3 5 2 1 7 7 7 12 12 5 5 10 14 15 19 28 36 37 33 31 32 27 25 28 29 28 27 27 29 30 32 34 36 37 37 38 38 38 38 38 37 37 38 38 39 40 41 43 45 46 46 45 44 43 42 41 38 36 34 32 31 29 28 26 23 21 19 18 18 17 17 17 18 18 19 20 20 21 22 23 24 24 25 25 26 29 31 33
8 4 7 10 11 9 9 7 4 3 5 2 3 2 8 7 8 8 4 6 8 9 9 14 24 32 33 28 27 27 22 24 28 28 27 26 26 28 30 32 33 33 33 34 36 37 37 37 37 37 37 37 37 38 40 42 44 46 48 48 47 46 45 43 40 38 35 33 32 32 30 29 26 24 22 20 19 18 18 18 18 18 18 19 20 21 22 22 23 24 25 26 26 26 28 31 33
6 2 1 1 3 5 4 3 4 4 4 3 4 4 8 13 7 7 8 8 8 8 8 11 19 28 30 30 30 26 21 22 25 27 27 25 25 26 28 29 29 28 29 32 34 35 36 36 36 36 36 36 36 37 40 42 45 47 48 47 46 46 44 42 39 37 36 35 34 33 32 30 27 25 23 22 20 19 18 18 18 18 18 19 20 21 22 23 24 25 26 27 27 27 29 31 32
4 1 2 3 2 1 1 1 5 3 5 5 6 7 5 13 6 8 10 10 9 10 10 12 17 24 27 30 31 26 24 24 23 25 25 23 22 24 25 25 24 25 27 29 31 32 34 34 34 34 34 35 35 37 39 41 44 47 47 47 46 45 43 41 39 38 38 38 36 35 33 31 28 26 25 23 21 20 19 19 18 18 19 19 21 21 22 24 25 26 27 27 28 28 29 30 31
4 2 4 5 2 1 2 2 2 2 6 7 7 9 5 13 10 6 7 8 10 10 10 13 17 22 26 28 28 24 24 24 23 23 21 19 20 21 22 22 22 24 25 26 28 30 32 32 33 34 34 34 34 36 38 40 43 46 46 47 47 46 44 43 41 41 41 40 38 36 34 32 30 28 26 24 22 21 20 19 19 19 19 20 21 22 23 24 25 27 28 28 29 29 29 30 31
3 3 2 2 1 1 2 2 1 1 9 8 10 14 9 9 7 5 7 9 10 10 10 12 13 19 24 24 24 24 23 24 22 21 19 18 20 20 21 22 22 23 23 26 28 29 30 31 33 33 33 34 34 35 37 39 42 44 45 46 47 47 46 45 45 44 44 42 39 36 34 33 31 29 27 25 23 22 20 20 19 19 20 20 21 22 23 25 26 28 29 30 30 29 29 29 30
2 3 2 1 2 2 3 1 3 2 10 5 11 17 14 10 5 3 4 8 12 12 10 12 10 14 22 24 23 24 24 23 22 20 19 19 21 22 23 23 23 23 25 26 26 26 29 31 32 33 34 34 34 35 36 38 41 43 44 45 46 47 47 47 47 47 45 43 40 37 35 34 32 30 28 26 24 22 21 20 20 20 20 21 22 23 24 25 27 29 30 30 30 29 28 28 28
3 4 4 1 2 1 1 2 2 5 10 4 10 14 11 13 9 2 3 5 11 11 9 13 13 14 21 23 23 24 25 24 22 20 19 19 21 23 24 24 24 25 25 24 25 26 28 30 32 33 34 35 35 35 36 37 39 41 43 45 46 47 47 48 48 47 46 43 40 38 36 35 33 31 29 27 25 23 21 21 20 20 21 21 22 23 24 26 28 30 31 30 29 28 27 27 27
7 6 6 5 3 3 3 4 3 6 9 4 7 9 6 8 6 9 12 10 11 13 16 18 16 16 19 20 20 23 25 24 22 20 19 18 19 22 24 24 25 25 24 24 24 26 28 30 31 33 34 35 35 36 36 36 37 40 43 44 45 46 47 48 48 48 46 43 40 38 37 36 34 32 30 27 25 23 22 21 21 21 21 22 22 23 25 27 29 31 31 30 29 27 26 26 27
9 6 6 6 4 3 3 5 6 5 6 4 3 4 4 3 2 12 16 15 15 19 25 26 19 17 20 20 19 22 24 23 22 20 18 17 18 21 23 24 25 25 24 24 25 26 27 28 30 32 34 35 36 36 35 34 35 39 43 44 45 46 47 48 48 48 46 44 41 39 38 37 34 32 30 27 26 24 23 22 21 21 22 22 22 23 26 28 30 31 31 29 27 26 26 26 27
6 5 4 5 5 5 4 6 7 3 5 6 4 4 6 5 6 9 11 12 15 17 22 22 18 19 23 22 20 22 24 23 22 21 18 17 18 21 23 25 26 26 25 25 26 26 26 26 28 31 33 35 36 36 35 33 34 37 42 44 45 46 47 48 49 48 47 45 42 40 38 37 34 32 30 28 26 24 23 22 21 21 22 22 23 25 27 29 31 31 30 28 26 25 26 27 27
3 4 5 5 3 6 4 6 5 2 6 9 5 6 8 8 10 11 11 12 12 12 14 14 16 22 25 22 21 23 24 24 24 22 19 18 19 22 25 27 28 29 28 28 27 26 25 24 26 30 32 35 37 37 36 35 35 36 40 43 45 46 47 48 49 49 48 45 42 41 39 37 35 32 31 28 27 25 23 22 21 21 22 22 24 26 28 30 30 31 29 27 26 25 26 27 28
5 3 5 1 3 1 3 2 3 3 7 9 7 9 10 9 9 5 9 13 13 13 13 12 16 22 21 19 22 25 25 25 25 23 21 21 21 23 26 28 31 31 31 30 28 26 25 25 26 29 32 32 35 37 37 37 36 35 38 42 45 47 48 49 49 49 48 46 43 42 40 38 36 33 31 29 28 25 24 22 22 22 22 23 25 26 29 30 30 30 28 26 26 26 27 28 29
5 2 2 2 1 1 3 3 2 5 6 8 11 14 12 12 10 5 5 12 14 14 14 14 16 16 15 18 24 26 26 25 25 25 26 25 24 25 26 30 33 32 32 31 29 29 29 28 29 31 31 31 34 37 38 38 39 37 38 41 44 46 47 48 49 49 48 46 44 43 41 39 36 34 32 30 28 26 24 23 22 22 22 24 26 27 28 29 29 29 27 26 25 26 28 30 30
2 3 4 1 2 3 4 4 3 5 6 7 12 15 13 10 8 7 9 13 14 12 12 12 13 13 16 21 25 25 25 26 27 28 29 28 25 24 26 31 33 33 33 33 32 32 32 32 32 32 32 33 35 38 39 40 40 39 39 41 44 46 47 48 49 49 48 47 45 43 41 39 37 35 33 30 28 26 24 23 22 22 23 24 26 28 28 29 28 27 26 25 25 26 28 30 31
3 1 3 3 2 1 1 3 3 5 6 6 6 12 14 5 3 5 8 10 11 11 10 10 10 14 21 24 25 24 25 26 27 28 30 28 24 23 26 30 32 34 35 35 34 34 34 35 35 33 33 34 37 39 41 41 41 41 41 41 44 46 47 49 49 48 48 47 45 43 41 39 37 35 33 30 28 26 23 22 22 22 24 25 27 27 27 28 27 25 24 24 26 27 29 31 32
10 8 9 8 7 4 3 7 6 4 4 6 6 11 16 5 6 4 6 9 10 11 11 10 10 16 22 22 24 23 23 25 26 28 31 27 23 23 26 30 33 36 37 36 36 37 37 37 36 36 35 36 38 41 42 42 42 42 41 41 44 46 47 49 49 48 48 47 45 44 41 40 38 35 33 30 28 25 23 22 22 23 25 26 26 26 26 26 25 24 23 25 27 28 30 31 32
Wind_Direction
207 201 210 231 189 145 145 316 293 234 216 260 256 225 127 81 102 125 123 102 82 138 90 77 75 50 62 43 354 48 59 41 62 138 171 168 166 169 167 167 167 173 180 192 198 183 183 195 195 200 202 222 238 253 262 272 282 285 288 290 289 291 291 288 288 290 292 295 296 297 299 300 301 302 302 305 308 314 321 326 327 329 330 325 326 330 328 324 325 327 326 320 312 310 314 316 314
207 163 114 76 156 140 306 187 246 264 215 247 255 202 119 99 127 156 160 141 81 92 94 105 106 46 344 329 336 359 47 49 87 116 127 145 158 166 169 170 169 176 179 196 203 180 183 195 196 203 202 228 251 264 278 288 294 298 297 296 294 293 291 288 286 285 286 288 289 290 291 292 294 295 297 300 302 304 306 307 308 308 311 313 313 313 314 313 316 321 322 316 311 314 318 319 318
203 161 116 59 197 234 309 200 253 293 268 271 300 99 124 124 128 108 92 100 96 100 103 123 137 17 292 293 324 304 69 71 72 99 125 146 159 166 171 174 173 177 183 201 201 180 189 195 197 198 199 212 225 248 270 284 292 301 301 303 301 301 299 296 292 289 287 285 285 286 286 287 288 290 292 293 296 298 300 300 299 299 299 302 302 302 301 300 303 306 308 307 311 318 321 322 322
170 170 132 126 289 259 275 202 240 282 281 286 34 130 146 127 113 81 73 88 102 114 108 121 127 11 254 254 345 345 122 111 63 97 139 155 169 172 175 178 177 180 187 200 197 189 191 188 189 180 168 156 144 147 127 75 11 358 343 337 331 326 321 315 309 303 299 296 293 291 290 289 289 289 290 290 292 294 296 298 298 298 297 296 294 295 295 295 296 298 298 299 303 307 309 311 312
144 160 139 152 251 276 281 251 251 245 260 284 357 154 111 104 110 93 88 92 97 112 110 130 110 64 222 237 303 15 121 135 202 219 184 175 177 177 182 184 183 184 191 200 195 191 183 172 162 135 123 106 98 85 73 61 49 34 23 13 6 359 349 343 334 328 322 318 314 310 306 302 299 296 295 293 294 293 293 295 296 297 297 296 292 291 289 289 290 290 291 292 294 295 298 299 300
121 125 148 163 271 298 301 268 267 251 254 291 338 112 104 97 108 107 104 95 93 118 134 147 142 81 197 220 239 206 144 171 212 236 223 195 185 183 186 187 189 191 197 202 191 180 163 151 130 109 102 86 75 66 58 48 40 27 19 7 0 355 348 343 336 332 328 326 323 322 321 318 317 313 310 307 305 304 302 299 297 298 299 299 298 295 292 289 288 287 287 288 290 291 292 293 294
117 110 188 232 273 266 268 257 263 268 283 328 353 67 84 104 113 119 122 114 106 147 164 163 174 171 190 180 216 229 213 231 243 273 253 202 195 191 190 192 194 197 203 201 185 173 153 128 110 103 92 81 72 61 52 38 24 15 9 3 359 352 349 343 337 333 326 326 323 322 323 322 321 320 319 317 316 315 314 312 308 305 302 302 302 301 299 295 293 291 289 288 288 289 289 289 289
136 129 217 237 268 181 232 254 254 264 273 24 54 36 56 115 126 135 152 168 155 175 180 176 170 178 230 182 214 240 233 246 249 256 258 221 204 197 195 198 201 204 208 201 191 179 154 129 121 112 100 92 79 67 46 31 17 14 12 10 9 2 359 353 346 342 336 333 329 328 326 325 323 321 320 318 317 317 317 317 315 312 308 304 301 300 299 298 297 296 295 293 292 291 290 289 288
144 251 264 207 271 227 235 243 244 253 221 144 107 83 82 126 143 153 167 168 151 174 179 178 172 161 186 185 210 233 232 245 248 250 246 236 217 205 204 207 209 211 211 205 201 184 171 163 154 139 126 122 101 80 42 32 24 21 18 10 5 4 1 358 356 350 349 344 341 341 340 339 336 334 332 330 329 327 326 324 321 318 315 311 307 302 299 298 298 298 297 297 297 296 294 293 291
219 243 268 309 257 266 259 245 240 244 156 94 94 139 148 141 164 172 175 170 158 171 173 176 183 194 200 185 192 220 237 240 241 245 239 234 224 214 213 214 214 214 215 208 201 194 190 182 169 161 155 150 129 88 40 32 29 25 10 4 1 4 5 5 8 5 8 7 5 4 4 5 1 2 357 355 352 349 346 342 338 333 330 325 320 314 309 305 302 300 299 299 299 299 299 298 297
246 219 237 306 254 257 255 265 286 351 104 97 103 158 170 164 179 187 192 186 166 157 155 163 190 218 230 256 217 225 236 235 240 241 234 229 224 219 216 216 216 216 216 210 205 201 196 189 180 176 173 166 153 109 47 28 22 16 0 1 3 8 15 18 21 24 28 26 28 27 25 25 22 22 17 15 12 7 4 358 355 350 347 343 337 333 327 322 318 314 311 309 307 306 305 304 303
250 215 192 240 251 259 269 301 317 345 100 174 169 163 171 174 187 199 200 197 169 152 164 175 185 208 217 245 228 234 235 235 245 245 238 226 221 220 217 217 218 218 216 214 211 206 202 195 191 191 186 184 175 156 38 13 359 355 355 0 8 18 27 32 37 37 37 36 35 35 33 31 28 26 23 21 19 17 14 10 7 3 360 356 352 348 344 340 336 332 329 326 322 319 316 313 311
251 276 213 233 258 264 288 305 309 326 312 257 144 153 166 179 199 210 209 210 183 168 191 198 191 186 209 218 209 233 239 243 251 252 239 224 223 222 220 220 220 219 218 218 216 211 208 199 198 202 200 203 198 188 333 331 334 341 349 356 7 20 30 35 40 39 39 37 33 32 31 28 26 23 22 20 19 18 15 14 12 9 6 4 0 357 355 351 348 345 343 340 337 334 331 328 324
246 296 310 266 280 275 284 281 284 304 291 21 90 140 163 186 207 214 223 229 199 192 209 205 194 185 232 222 206 230 235 243 252 252 233 225 227 224 223 224 224 223 223 224 222 220 214 205 204 209 213 218 225 265 314 318 329 335 338 345 357 6 19 28 29 35 33 31 28 26 24 21 19 18 17 15 14 13 12 10 8 6 4 2 1 359 357 354 352 350 349 347 345 343 340 339 335
253 303 317 258 287 284 269 257 266 286 292 61 100 140 166 200 207 215 232 238 213 186 165 182 190 179 235 222 208 226 231 238 247 242 228 230 228 225 227 225 226 227 228 230 228 229 224 213 209 210 216 215 214 225 259 287 308 320 325 326 336 348 3 17 22 26 26 26 22 20 18 14 13 11 10 8 6 5 3 2 0 359 358 357 356 354 354 352 351 349 349 348 346 345 344 344 342
256 295 304 254 273 274 248 229 270 281 277 106 137 148 171 215 203 209 229 226 216 193 183 183 198 202 233 233 210 218 226 228 231 227 224 231 229 228 230 225 227 228 228 231 230 231 227 217 212 210 212 210 207 211 225 243 265 285 297 302 309 324 342 7 15 20 18 18 16 13 10 6 6 3 1 360 358 357 356 355 353 353 352 352 350 349 350 348 347 345 344 344 343 343 341 340 338
245 246 252 257 258 263 248 206 228 273 229 120 163 172 179 215 199 213 228 228 233 225 219 216 215 221 235 244 233 229 235 233 230 229 227 230 230 231 230 227 229 230 230 231 230 230 226 219 214 211 210 209 208 208 217 227 237 250 259 263 266 276 291 327 348 5 8 9 8 5 3 2 1 357 354 352 351 351 349 349 349 349 348 347 345 344 345 344 342 340 339 338 337 336 334 333 332
204 190 224 240 248 249 284 331 352 4 331 111 176 190 213 224 185 212 232 233 235 241 242 235 232 236 240 243 242 241 244 244 242 240 237 233 233 234 232 231 233 234 233 233 232 231 226 220 216 213 211 210 211 212 216 222 229 235 240 239 236 242 248 263 284 313 334 343 347 348 350 351 351 349 348 346 346 346 343 342 342 342 341 338 337 336 337 337 336 335 334 332 331 330 329 329 329
212 231 243 243 260 263 297 337 341 347 323 324 208 194 223 248 198 200 224 231 224 233 242 233 232 234 237 240 240 243 245 246 247 246 245 242 239 240 237 236 237 238 238 236 236 234 229 223 220 216 213 213 213 215 218 221 226 230 232 230 226 229 232 240 248 257 273 287 299 312 317 320 327 333 338 340 341 342 340 339 337 337 335 332 330 331 332 333 333 332 332 331 331 329 329 328 327
223 230 262 252 274 321 314 329 311 302 311 309 288 230 214 244 231 186 210 246 226 226 233 223 224 229 232 236 237 240 243 244 247 248 247 246 244 243 242 241 241 244 243 240 238 236 232 226 222 219 215 215 216 217 219 222 225 227 230 228 225 226 227 231 236 242 248 255 265 274 285 294 304 313 322 332 340 343 346 347 346 346 344 340 335 333 332 331 331 331 331 331 331 330 329 328 327
218 204 228 261 284 330 310 334 296 274 285 280 287 278 234 242 241 209 208 254 245 236 235 226 227 234 232 231 237 242 242 242 244 247 247 247 245 243 244 246 246 247 246 242 239 239 235 229 226 222 217 217 219 219 221 223 225 227 229 229 227 226 228 231 235 239 242 247 251 258 270 281 290 299 308 320 335 342 349 353 354 355 353 351 346 341 337 334 332 330 331 331 331 331 330 329 329
238 234 243 263 269 282 295 314 243 244 252 262 273 271 253 246 239 224 212 222 244 239 239 236 235 240 237 232 237 241 242 244 244 246 247 248 247 245 243 245 245 243 243 243 241 241 237 232 230 225 219 220 221 222 224 224 226 228 229 229 229 229 231 234 236 238 240 245 248 254 262 272 282 289 298 306 319 330 342 348 350 353 355 355 352 349 345 340 336 333 332 333 333 333 332 331 330
229 253 250 262 264 267 277 263 244 247 248 248 252 260 256 251 244 233 223 230 245 247 242 251 244 236 237 238 237 236 239 243 246 249 251 251 251 248 244 243 244 244 244 245 244 242 238 234 232 227 221 222 223 223 225 226 228 229 229 230 230 231 233 236 237 239 241 244 247 253 260 269 279 286 292 298 308 322 332 337 342 348 352 353 351 349 347 342 338 334 333 333 334 334 333 332 331
225 262 264 274 275 265 264 264 254 250 245 244 252 271 256 241 247 247 240 241 249 254 252 257 259 242 234 236 236 237 241 244 248 253 256 257 256 255 249 244 244 245 244 245 245 244 240 235 233 229 224 223 224 225 226 227 230 230 230 231 231 232 234 236 237 238 241 244 248 253 260 268 276 284 291 297 306 315 322 328 336 344 347 349 347 345 343 341 338 334 333 332 332 332 332 332 331
222 250 260 270 274 261 261 262 257 252 247 247 253 264 251 242 253 264 255 252 252 254 254 252 254 254 245 242 242 241 243 245 248 252 253 255 253 251 247 241 239 241 243 243 245 245 243 238 234 230 226 224 225 226 228 229 231 231 231 231 231 233 234 235 237 238 241 243 247 252 259 267 273 281 288 295 301 307 315 324 333 341 343 344 343 341 340 339 337 336 334 332 331 333 333 332 332
224 261 273 282 284 276 268 254 246 245 245 240 242 251 252 252 260 269 260 257 256 252 249 246 247 251 248 245 246 246 246 247 249 250 252 253 250 246 243 238 235 238 242 242 243 245 244 240 235 231 229 227 226 227 228 230 232 231 232 233 231 234 235 235 237 239 240 241 246 251 257 264 269 277 284 291 297 303 312 323 332 338 338 338 339 338 338 337 337 335 333 333 334 336 337 336 336
292 304 302 298 289 282 272 258 246 238 239 226 221 244 254 252 239 261 264 262 258 250 244 243 241 245 246 243 244 246 249 250 251 251 250 248 245 245 243 238 236 236 239 240 241 243 243 242 237 233 230 228 226 227 229 231 232 232 234 233 232 234 235 236 238 239 240 241 245 250 256 262 268 274 282 288 294 302 311 322 329 332 333 334 335 335 337 336 335 333 333 335 336 337 339 339 338
291 316 310 287 278 272 258 252 245 234 237 222 219 256 260 244 200 246 258 259 249 242 239 240 236 238 243 242 240 242 247 251 251 247 246 246 247 247 244 242 238 235 237 240 241 242 242 242 239 234 231 229 228 228 230 232 233 233 235 234 234 236 236 237 238 239 241 243 246 251 257 262 267 272 280 287 294 301 310 319 323 326 330 330 332 334 335 334 333 334 335 336 336 337 338 337 337
292 306 303 280 274 267 249 242 233 221 228 210 202 274 262 224 217 246 257 255 244 238 234 234 231 233 237 240 239 239 245 248 245 245 247 250 251 249 247 247 243 236 238 240 240 241 243 243 240 235 232 231 230 229 230 232 233 234 235 235 235 236 236 238 239 240 242 244 248 252 256 262 266 270 276 284 291 300 307 315 319 322 326 327 329 332 333 333 334 334 334 334 335 336 336 335 336
277 259 250 276 286 269 249 238 218 205 200 179 161 264 262 222 219 240 260 255 237 233 233 232 229 229 233 239 241 241 244 243 244 248 251 251 250 249 248 247 245 239 238 238 239 241 242 242 240 236 233 232 231 230 230 232 233 234 235 236 236 236 237 238 239 240 242 243 247 251 255 260 264 267 272 280 287 297 305 311 316 319 323 325 327 329 331 332 332 332 333 334 335 335 336 338 337
255 270 246 252 277 271 264 231 186 182 186 170 156 248 260 263 228 232 254 248 225 223 228 229 228 230 234 239 242 243 245 245 248 251 251 250 249 249 247 245 244 240 237 238 240 240 241 241 240 237 235 233 231 231 231 232 234 234 235 236 236 236 237 238 239 240 242 243 245 249 253 257 261 264 268 277 284 294 303 310 314 317 321 322 324 326 328 329 330 332 332 333 333 336 338 339 338
214 250 258 227 229 260 283 199 171 175 178 173 167 240 250 268 258 239 245 235 214 215 224 225 227 232 237 241 243 245 248 249 250 249 247 248 247 247 247 245 243 241 238 238 239 238 239 241 240 238 237 234 232 232 232 232 234 234 235 236 236 237 239 239 239 240 241 244 246 248 253 256 259 262 266 274 283 293 302 307 311 314 318 320 321 322 324 326 329 330 331 333 335 338 338 338 337
212 198 247 239 237 260 270 210 186 175 136 182 197 229 245 249 255 228 218 213 205 211 222 224 229 235 240 244 244 246 249 248 246 246 245 245 245 245 246 245 244 242 240 238 238 238 238 239 239 238 238 235 233 232 232 232 233 234 235 237 237 238 239 239 240 241 242 245 247 249 252 256 258 260 264 271 281 289 298 303 307 312 315 317 318 319 321 324 327 327 329 334 338 338 337 337 335
238 207 236 240 240 256 253 281 219 188 144 195 211 233 253 248 246 246 203 196 201 211 222 231 240 243 246 249 247 247 249 247 246 245 245 245 245 245 245 245 243 242 239 237 238 238 239 239 239 238 238 236 233 232 232 233 234 234 236 238 237 238 239 239 240 241 243 245 248 250 252 254 256 258 261 268 277 285 293 299 304 310 312 314 316 317 319 322 324 325 328 334 337 337 337 336 334
249 239 255 260 247 249 253 277 207 190 184 213 212 229 249 255 259 262 257 234 217 221 231 243 251 252 253 254 252 252 251 250 251 249 247 247 247 247 245 244 241 238 236 234 235 236 236 238 238 237 237 236 233 232 233 233 233 234 235 237 236 236 238 239 240 240 242 244 247 250 250 251 252 254 257 264 272 281 289 296 302 307 310 312 314 315 318 319 322 324 328 331 332 335 337 336 335
261 267 270 272 270 265 264 275 186 182 197 219 219 229 245 254 253 255 261 256 242 239 241 244 249 251 254 254 254 254 252 254 256 253 250 248 248 248 246 244 240 236 234 232 232 232 234 235 235 235 236 236 233 231 231 231 231 232 234 235 235 235 237 238 239 240 241 243 246 248 248 249 250 251 254 261 270 279 287 295 301 305 308 311 312 314 316 318 321 323 325 327 330 334 336 337 336
259 267 269 267 272 271 268 277 207 186 200 218 224 233 243 254 256 250 258 261 254 250 248 246 248 250 253 254 255 255 253 256 259 255 251 249 247 246 244 242 237 233 230 229 229 229 232 235 236 236 235 235 234 233 232 232 232 233 234 236 237 236 237 237 238 239 240 242 244 246 246 247 248 250 254 260 268 276 285 293 299 303 306 308 311 313 316 318 320 320 322 326 331 334 336 337 334
253 257 267 270 265 267 272 280 207 187 204 231 237 245 249 256 262 259 257 257 253 252 252 252 254 256 258 259 259 259 257 255 254 250 247 246 243 240 238 237 235 232 229 227 229 230 233 237 237 238 236 235 236 236 236 235 237 238 239 240 240 239 238 238 239 240 241 242 243 245 244 245 248 249 254 259 267 275 283 290 296 300 303 306 309 312 314 316 316 317 320 325 331 334 335 335 333
264 266 273 274 268 275 280 280 195 183 192 241 252 255 257 260 263 262 257 252 250 251 251 253 256 260 262 263 261 261 258 248 243 241 241 241 241 237 234 234 234 234 231 229 230 231 233 235 236 237 237 237 238 238 238 238 239 240 240 242 241 239 238 238 238 239 240 241 242 243 243 244 246 248 252 258 264 271 279 286 292 296 300 304 307 309 311 313 314 315 319 324 329 330 331 332 332
254 253 262 266 261 268 278 252 198 205 210 243 269 267 260 264 265 262 256 253 252 252 252 254 257 259 260 261 262 259 253 242 235 232 235 237 238 235 232 232 233 231 228 227 228 230 232 234 236 236 237 238 238 239 239 238 238 239 238 239 238 237 237 236 236 236 238 240 242 242 242 243 245 247 250 255 260 267 275 282 288 293 297 301 303 306 308 310 311 313 317 322 325 327 328 329 329
242 225 231 252 253 252 256 252 215 222 233 240 293 288 263 244 251 258 256 251 249 247 247 251 255 257 258 259 260 259 250 240 233 229 232 235 237 236 234 232 231 229 228 228 230 232 233 235 237 237 238 239 239 239 239 237 236 235 234 232 231 231 232 233 234 235 237 239 241 240 240 242 244 245 249 253 258 264 272 278 285 290 294 297 301 303 305 306 308 310 314 318 321 324 325 325 327
260 215 217 240 253 257 261 280 319 306 267 219 178 286 268 210 225 249 258 223 234 236 233 240 247 253 257 255 258 260 250 238 237 235 234 237 239 238 234 231 229 230 231 231 232 233 235 236 237 237 238 238 238 239 238 237 236 235 234 233 231 232 232 233 236 238 240 241 241 240 239 241 243 245 248 252 257 263 269 275 281 287 291 295 297 300 302 303 304 307 310 313 318 322 322 322 324
273 229 219 240 255 264 265 280 295 260 267 241 127 284 284 257 225 240 233 190 220 227 218 234 240 245 250 252 259 264 250 233 232 234 233 235 238 237 234 231 230 230 231 231 231 232 233 234 235 237 238 238 238 239 238 237 237 237 237 238 238 239 239 239 241 241 242 242 241 239 239 241 242 244 247 250 256 261 267 273 278 284 288 291 294 297 299 300 302 304 307 310 315 319 319 319 321
267 266 270 231 253 264 261 263 243 241 290 272 164 147 279 279 246 201 202 194 216 229 221 236 240 240 245 254 261 262 250 236 228 227 227 230 236 239 238 235 232 230 229 227 228 229 231 232 234 236 237 238 239 239 239 239 240 239 239 239 239 240 242 242 242 241 240 239 237 238 239 241 241 242 245 249 254 259 265 271 276 281 285 288 291 294 296 297 299 301 304 308 312 315 316 317 319
250 9 44 79 85 329 72 230 250 291 321 271 186 151 244 277 256 173 185 193 209 222 220 230 239 238 240 249 256 255 248 244 234 229 228 230 237 242 241 238 233 229 226 226 227 228 229 231 232 235 236 238 238 239 240 240 241 241 240 240 239 239 239 240 239 239 239 237 236 238 239 239 239 241 244 247 252 258 263 269 274 279 283 286 289 291 293 295 296 299 302 306 309 312 315 317 318
216 139 72 75 80 38 78 231 261 354 289 251 183 159 210 274 268 190 187 204 208 214 220 228 237 239 237 240 245 244 241 240 233 229 229 232 239 241 239 234 229 227 225 225 227 227 228 229 230 233 235 236 238 239 240 241 242 241 241 241 240 238 237 236 236 235 236 237 236 237 237 237 238 240 243 246 250 256 261 266 272 277 280 284 287 288 290 292 294 298 301 304 308 312 316 317 316
166 133 78 61 283 23 67 238 103 36 271 249 184 178 193 270 280 172 185 200 195 203 219 229 235 240 239 236 236 234 231 233 229 222 221 226 233 234 232 229 225 225 223 223 225 225 226 228 229 232 234 234 236 238 240 242 243 243 243 242 240 239 236 235 235 234 235 236 235 235 236 236 238 239 241 244 249 254 259 265 269 274 278 281 284 285 288 290 293 297 300 304 308 312 314 314 313
128 117 117 1 299 16 38 293 102 203 265 247 175 181 191 235 269 119 181 192 189 199 213 219 218 231 236 233 233 231 227 230 226 216 213 216 221 222 222 222 221 221 221 220 222 223 225 227 228 230 231 232 233 236 239 241 244 245 244 243 241 239 237 237 237 237 237 237 236 235 235 235 237 238 241 244 248 252 257 263 267 271 276 278 280 283 287 291 294 297 301 305 307 310 311 312 312
147 135 139 137 285 314 330 250 151 217 257 240 171 179 199 235 251 246 236 199 194 207 218 214 203 211 227 228 230 228 222 223 221 215 215 216 218 217 215 216 216 218 219 219 221 223 225 227 228 229 230 229 230 233 237 241 244 246 245 243 241 239 238 238 238 238 238 237 236 235 235 235 237 238 242 245 248 252 257 262 266 270 273 276 279 284 289 292 295 298 301 303 305 308 311 311 311
177 159 149 164 204 240 246 241 235 239 259 264 169 175 222 263 253 214 223 221 201 207 217 216 204 201 217 228 231 225 215 216 219 217 218 220 222 218 215 214 215 217 219 219 222 225 228 228 229 231 230 228 230 233 236 240 245 247 246 243 241 239 238 237 238 238 238 237 236 236 236 237 238 240 243 245 248 252 256 260 264 268 272 276 281 286 290 292 294 296 299 301 305 310 311 311 311
194 173 161 191 186 192 231 233 243 259 278 275 166 168 230 276 204 191 208 219 207 204 214 217 212 210 223 235 231 216 208 211 218 220 220 224 225 221 218 217 217 218 219 219 223 226 229 231 231 232 231 229 230 232 235 240 246 247 245 243 242 240 239 238 237 237 237 236 235 235 236 237 238 240 242 244 247 251 255 258 263 268 273 277 282 285 288 290 292 295 298 302 307 311 311 310 310
211 156 167 229 199 185 239 258 248 266 305 271 206 213 245 261 258 220 210 220 212 208 215 217 213 217 230 235 220 206 207 212 218 221 221 224 225 222 221 221 220 219 219 220 223 226 229 231 234 235 234 232 231 232 235 239 245 247 245 244 242 240 239 238 237 236 236 236 235 235 236 237 238 239 241 244 247 251 254 258 263 268 272 277 280 284 286 289 292 296 299 303 308 311 310 309 310
185 149 195 222 170 167 215 277 280 258 278 272 235 242 274 294 275 240 211 217 216 211 217 216 211 219 228 227 212 208 212 218 224 227 229 230 229 228 227 227 225 223 223 226 227 230 233 234 238 239 236 233 233 234 236 237 241 246 247 245 242 241 239 238 237 236 235 235 234 235 235 236 236 237 240 243 246 250 253 257 263 266 270 275 279 282 286 290 294 296 299 304 309 310 307 308 309
135 181 221 196 38 95 165 260 311 258 258 272 263 261 276 284 278 238 194 207 214 210 211 211 214 220 226 221 216 220 223 226 231 233 237 238 236 235 235 234 233 230 231 233 234 236 238 238 242 241 238 239 240 236 235 237 239 244 247 246 243 241 240 239 238 237 235 234 234 234 234 235 235 236 239 241 244 248 251 256 260 265 269 274 278 283 287 291 294 297 301 305 308 308 306 307 309
139 212 278 106 101 230 166 173 222 238 251 274 278 279 273 257 261 276 213 205 207 208 208 209 215 219 222 222 224 227 228 230 234 236 239 241 240 239 241 241 237 234 234 237 238 238 239 240 243 243 242 244 244 238 235 237 238 242 246 246 244 242 240 239 238 236 235 234 234 234 234 234 234 235 238 240 243 246 250 255 259 264 269 273 278 283 287 292 295 297 302 305 307 307 306 307 307
97 3 337 80 159 178 181 186 192 214 240 268 283 288 278 250 239 242 217 198 198 202 205 211 218 220 219 222 227 227 225 227 234 239 240 239 240 242 246 246 241 239 240 239 238 239 241 243 242 243 244 243 241 238 237 238 238 240 243 244 243 242 240 239 238 236 235 234 233 233 233 234 234 235 237 239 242 246 249 254 259 264 269 274 279 284 289 292 295 297 302 305 305 305 304 305 306
175 214 246 211 183 121 202 248 222 205 223 244 267 277 273 258 155 198 190 181 193 195 200 211 219 224 222 222 227 229 228 232 238 243 241 237 237 243 250 248 242 242 242 240 241 244 245 245 244 245 245 244 243 240 237 238 239 239 241 243 243 242 240 239 237 236 235 233 233 232 232 233 233 234 236 238 241 245 249 255 261 265 270 275 280 285 290 291 294 298 302 304 303 302 303 304 305
186 195 206 203 192 173 229 246 232 204 215 228 232 260 267 259 100 126 160 174 196 193 199 212 213 222 226 226 230 235 238 241 246 248 243 236 237 247 254 250 244 241 241 242 244 248 249 250 248 247 247 249 249 245 240 238 238 237 240 243 243 241 240 238 237 235 234 232 232 231 231 231 232 234 236 238 241 245 250 256 261 266 270 275 281 286 289 290 294 299 301 302 301 301 303 304 305